TimeAKDT,TemperatureF,Dew PointF,Humidity,Sea Level PressureIn,VisibilityMPH,Wind Direction,Wind SpeedMPH,Gust SpeedMPH,PrecipitationIn,Events,Conditions,WindDirDegrees,DateUTC
12:53 AM,37.9,27.0,65,30.33,10.0,SE,12.7,21.9,N/A,,Overcast,140,2012-10-03 08:53:00
1:53 AM,37.9,27.0,65,30.32,10.0,SSE,11.5,-,N/A,,Clear,150,2012-10-03 09:53:00
2:53 AM,35.1,27.0,72,30.33,10.0,SSE,8.1,-,N/A,,Clear,160,2012-10-03 10:53:00
3:53 AM,33.1,27.0,78,30.34,10.0,SSE,4.6,-,N/A,,Clear,150,2012-10-03 11:53:00
4:53 AM,30.9,27.0,85,30.34,10.0,SSE,8.1,-,N/A,,Clear,160,2012-10-03 12:53:00
5:53 AM,32.0,27.0,82,30.34,10.0,SSE,5.8,-,N/A,,Partly Cloudy,160,2012-10-03 13:53:00
6:53 AM,30.0,26.1,85,30.35,10.0,SW,3.5,-,N/A,,Scattered Clouds,230,2012-10-03 14:53:00
7:53 AM,27.0,25.0,92,30.36,10.0,WSW,3.5,-,N/A,,Mostly Cloudy,240,2012-10-03 15:53:00
8:53 AM,27.0,25.0,92,30.36,10.0,Calm,Calm,-,N/A,,Scattered Clouds,0,2012-10-03 16:53:00
9:53 AM,36.0,30.0,79,30.37,10.0,Calm,Calm,-,N/A,,Scattered Clouds,0,2012-10-03 17:53:00
10:53 AM,37.9,28.9,70,30.36,10.0,Calm,Calm,-,N/A,,Scattered Clouds,0,2012-10-03 18:53:00
11:53 AM,39.9,28.9,65,30.36,10.0,Calm,Calm,-,N/A,,Scattered Clouds,0,2012-10-03 19:53:00
12:53 PM,42.1,30.0,62,30.34,10.0,SSE,4.6,-,N/A,,Mostly Cloudy,150,2012-10-03 20:53:00
1:53 PM,45.0,30.0,56,30.31,10.0,South,8.1,-,N/A,,Mostly Cloudy,170,2012-10-03 21:53:00
2:53 PM,46.0,28.9,51,30.29,10.0,SSE,13.8,18.4,N/A,,Mostly Cloudy,160,2012-10-03 22:53:00
3:53 PM,48.0,28.0,46,30.26,10.0,SSE,13.8,-,N/A,,Overcast,160,2012-10-03 23:53:00
4:53 PM,46.9,27.0,46,30.25,10.0,SSE,13.8,19.6,N/A,,Overcast,160,2012-10-04 00:53:00
5:53 PM,46.9,28.0,48,30.24,10.0,SSE,13.8,21.9,N/A,,Overcast,160,2012-10-04 01:53:00
6:53 PM,43.0,33.1,68,30.26,10.0,SE,16.1,-,0.00,Rain,Light Rain,140,2012-10-04 02:53:00
7:53 PM,42.1,34.0,73,30.25,10.0,SSE,15.0,23.0,0.00,,Overcast,150,2012-10-04 03:53:00
8:53 PM,43.0,34.0,71,30.24,10.0,SSE,17.3,26.5,N/A,,Overcast,150,2012-10-04 04:53:00
9:25 PM,42.8,33.8,70,30.16,10.0,SSE,13.8,19.6,N/A,,Overcast,150,2012-10-04 05:25:00
9:53 PM,44.1,34.0,68,30.21,10.0,SSE,12.7,24.2,N/A,,Mostly Cloudy,150,2012-10-04 05:53:00
10:53 PM,45.0,34.0,65,30.19,10.0,SSE,11.5,21.9,N/A,,Mostly Cloudy,150,2012-10-04 06:53:00
11:53 PM,45.0,34.0,65,30.18,10.0,SE,11.5,23.0,N/A,,Clear,140,2012-10-04 07:53:00